CAPE
163 91 69 80 48 43 28 32 36 16 25 47 22 19 17 0 0 0 0 0 0 1
45 56 69 12 1 0 0 0 0 0 0 1 0 0 0 0 3 0 0 0 0 0
24 0 0 0 0 0 0 0 0 0 0 0 3 1 0 0 0 3 11 13 24 21
0 0 0 0 0 0 0 3 2 6 6 9 8 14 42 21 13 10 6 2 1 1
0 0 0 0 0 0 0 2 7 10 24 14 2 0 1 0 0 0 0 0 0 0
0 4 3 3 1 0 0 0 0 0 0 0 0 0 0 0 0 0 0 0 0 0
0 0 0 0 0 0 0 0 0 0 0 0 0 0 0 0 0 0 0 0 0 0
0 0 0 0 0 0 0 0 0 0 0 0 0 0 0 0 0 0 0 0 0 0
0 0 0 0 0 0 0 0 0 0 0 0 0 0 0 0 0 0 0 0 0 0
0 0 0 0 0 0 0 0 0 0 0 0 0 0 0 0 0 0 0 0 0 0
0 0 0 0 0 0 0 0 0 0 0 0 0 0 0 0 0 0 0 0 0 0
0 0 0 0 0 0 0 0 0 0 0 0 0 0 0 0 0 0 0 0 0 0
0 0 0 0 0 0 0 0 0 0 0 0 0 0 1 0 0 0 0 0 0 0
0 0 0 0 0 0 0 0 0 0 0 0 0 0 0 1 0 0 0 0 0 0
CIN
-98 -102 -120 -140 -134 -139 -150 -146 -132 -125 -95 -114 -136 -84 -59 -0 -0 -0 -0 -0 -0 -0
-177 -180 -165 -146 -179 -0 -0 -0 -0 -0 -0 -111 -0 -0 -0 -0 -45 -0 -0 -0 -0 -0
-170 -0 -0 -0 -0 -0 -0 -0 -0 -0 -0 -58 -124 -75 -11 -0 -0 -76 -55 -35 -11 -30
-0 -0 -0 -0 -0 -0 -0 -113 -114 -128 -153 -137 -116 -76 -63 -75 -76 -67 -72 -85 -24 -21
-0 -0 -0 -0 -0 -0 -0 -226 -203 -184 -154 -148 -170 -9 -78 -0 -0 -0 -0 -0 -0 -0
-0 -171 -169 -194 -205 -0 -0 -0 -0 -0 -0 -0 -0 -0 -0 -0 -0 -0 -0 -0 -0 -0
-0 -0 -0 -0 -0 -0 -0 -0 -0 -0 -0 -0 -0 -0 -0 -0 -0 -0 -0 -0 -0 -0
-0 -0 -0 -0 -0 -0 -0 -0 -0 -0 -0 -0 -0 -0 -0 -0 -0 -0 -0 -0 -0 -0
-0 -0 -0 -0 -0 -0 -0 -0 -0 -0 -0 -0 -0 -0 -0 -0 -0 -0 -0 -0 -0 -0
-0 -0 -0 -0 -0 -0 -0 -0 -0 -0 -0 -0 -0 -0 -0 -0 -0 -0 -0 -0 -0 -0
-0 -0 -0 -0 -0 -0 -0 -0 -0 -0 -0 -0 -0 -0 -0 -0 -0 -0 -0 -0 -0 -0
-0 -0 -0 -0 -0 -0 -0 -0 -0 -0 -0 -0 -0 -0 -0 -0 -0 -0 -0 -0 -0 -0
-0 -0 -0 -0 -0 -0 -0 -0 -0 -0 -0 -0 -0 -0 -0 -0 -0 -0 -0 -0 -0 -0
-0 -0 -0 -0 -0 -0 -0 -0 -0 -0 -0 -0 -0 -0 -0 -0 -0 -0 -0 -0 -0 -0
Wind_Speed
9 10 13 13 11 11 11 12 12 14 13 12 13 13 15 17 18 20 19 22 22 20
11 11 10 11 11 11 11 11 9 11 12 12 13 16 17 18 18 20 23 23 24 25
13 12 11 11 11 10 11 11 13 14 14 15 16 16 15 17 17 18 20 20 20 23
12 12 12 11 12 13 14 14 17 17 16 15 15 17 16 17 19 20 21 21 23 25
12 12 13 15 17 17 17 19 19 18 17 17 17 16 18 19 20 22 25 27 30 28
14 15 15 15 15 15 17 18 17 18 19 19 18 18 18 20 20 22 23 25 26 26
15 16 16 16 16 16 16 17 17 16 16 16 17 17 17 19 22 24 23 24 26 28
15 14 15 16 16 15 15 15 14 14 15 15 16 18 19 20 22 24 25 26 28 30
16 15 14 13 13 14 14 14 14 14 14 15 18 19 20 21 23 26 29 31 32 33
16 16 15 14 14 15 15 15 15 16 17 18 19 21 22 24 25 27 29 30 31 33
17 17 17 16 16 16 17 17 17 18 19 19 21 21 23 25 26 26 28 29 31 32
16 16 16 16 16 17 18 18 19 20 21 22 22 23 24 25 27 28 29 29 29 30
16 16 17 16 17 19 20 20 21 22 23 24 24 24 25 26 27 29 29 28 27 27
16 17 17 18 20 20 20 21 22 23 25 26 26 27 27 24 26 27 28 27 27 26
Wind_Direction
270 272 274 279 282 288 293 293 301 304 303 307 315 321 321 318 317 315 318 313 319 309
283 289 295 296 300 303 308 313 322 323 322 325 329 330 327 322 319 315 316 315 311 307
279 287 291 292 297 305 313 313 315 316 316 317 322 328 333 334 336 333 327 325 323 314
279 286 290 292 297 302 308 309 309 311 313 315 317 320 320 324 326 325 326 325 320 318
279 286 287 290 295 300 307 307 306 310 313 315 317 319 319 319 322 320 317 314 311 316
279 284 288 296 301 307 311 310 314 312 309 310 316 318 320 319 321 320 319 317 319 320
283 288 292 299 305 309 314 314 317 320 318 321 323 325 326 321 317 316 322 324 321 321
285 291 294 301 307 313 317 322 326 327 330 332 331 330 328 328 325 321 320 321 320 319
284 289 294 300 305 311 315 319 323 328 329 331 331 331 330 328 324 321 318 316 318 318
281 284 289 296 301 303 307 313 318 321 323 324 324 323 323 324 324 322 322 321 321 319
279 282 287 291 296 299 303 308 311 312 315 318 319 321 323 325 327 327 326 325 323 321
280 282 286 288 292 296 298 302 304 308 312 314 316 319 322 325 325 326 328 328 326 325
281 283 284 289 291 293 296 300 305 308 310 312 314 317 319 323 324 325 325 329 329 328
285 286 288 289 291 293 298 303 304 306 308 310 312 313 317 320 324 324 325 328 327 330